Погода в Барнауле

Погода в Барнауле : погода сейчас, прогноз погоды и архив. Всё, что Вы хотите узнать о погоде в Барнауле!

Хотите узнать прогноз погоды Барнаул? Тогда Вам сюда: Погода Барнаул

Поиск расширенной информации на нашем сайте:

Другие новости

Новости СМИ2

Главная страница сайта

Новости сайта

03.07.2017

Напоминаем, что на нашем специализированном сайте Метеоцентр.Азия вы можете получить высокодетализированные автоматические прогнозы погоды по пунктам России, СНГ и мира в авиационном формате (включающие направление и скорость ветра, видимость, явления погоды, количество и форму облачности, нижнюю и верхнюю границу облачности).


Погода в Барнауле - сегодня

Время (UTC), дата Ветер
(°,м/с) 
Видим.   Явления Облачность Т
(°С)
Тd
(°С)
f(%) Тe
(°С)
Pmin
(гПа)
dP
(гПа)
Po
(мм)
O2
(г/м3)
Тmin Tmax R s Состояние
почвы
06 16.10.17 220 (ЮЗ) 10 км    10/10 600 м 
[Sc]
+8.5 +3.2 69 +8  1016.6  0.8  746  291           
09 16.10.17 240 (ЮЗ) 10 км    10/10 600 м 
[Sc]
+9.7 +2.2 59 +8  1017.1  0.6  746  290           
12 16.10.17 300 (СЗ) 10 км    10/10 1000 м 
[Sc]
+7.1 +3.6 78 +8  1019.4  748  293    +9.7       
15 16.10.17 тихо ()   10 км    ясно 
+2.6 +1.5 92 +3  1021.6  1.8  749  299           
18 16.10.17 тихо ()   10 км    ясно 
-0.1 -0.5 97 -0  1022.6  0.8  750  302           
21 16.10.17 тихо ()   10 км    ясно 
-1.8 -2 99 -2  1023.2  0.4  750  304           
00 17.10.17 тихо ()   10 км    8/0 средняя, верхняя 
[Ac trans|Ci fib]
-0.2 -0.4 99 -0  1024  0.9  751  303  -2.1         
03 17.10.17 360 (С) 4000 м  дымка  10/10 600 м 
[Sc]
+3.9 +3.6 98 +5  1024.4  0.8  751  298           
06 17.10.17 030 (СВ) 10 км    4/4 1000 м 
[Cu hum]
+9.2 +2.9 65 +10  1023.5  -0.5  751  292           
09 17.10.17 030 (СВ) 10 км    5/0 верхняя 
[Ci fib]
+11.1 +3 57 +12  1022  -1.3  750  290           
12 17.10.17 030 (СВ) 10 км    4/0 верхняя 
[Cs]
+7.4 +2.1 69 +8  1022.1  -0.2  750  294    +11.5       
15 17.10.17 030 (СВ) 10 км    ясно 
+4.5 +1.6 81 +5  1021.9  -0.4  749  297           
18 17.10.17 030 (СВ) 10 км    5/5 600 м 
[Sc]
+2.5 +0.9 89 +3  1020.2  -1.8  748  298           
21 17.10.17 тихо ()   10 км    4/0 верхняя 
[Cs]
+1 +0.3 95 +1  1018.6  -1.8  747  300           
00 18.10.17 тихо ()   4000 м  дымка  ясно 
-0.1 -0.5 97 -0  1017.2  -1.4  746  301  -0.9         
03 18.10.17 030 (СВ) 4000 м  дымка  3/0 верхняя 
[Ci fib]
+2.2 +1.3 94 +3  1016.3  -0.7  745  298           
06 18.10.17 360 (С) 10 км    3/0 верхняя 
[Ci sp]
+8.6 +2.7 66 +9  1013.9  -1.8  744  290           
09 18.10.17 040 (СВ) 10 км    6/0 верхняя 
[Cs]
+11.2 +3.3 58 +12  1012.2  -1.5  743  287           
12 18.10.17 тихо ()   10 км    8/0 средняя, верхняя 
[As trans|Ci sp]
+8 +3 71 +8  1012.3  -0.2  742  290    +11.9       
15 18.10.17 030 (СВ) 10 км    4/0 верхняя 
[Ci sp]
+6.2 +2.4 77 +7  1012.7  0.3  743  292           
18 18.10.17 тихо ()   10 км    3/0 верхняя 
[Ci fib]
+1.9 +0.7 92 +2  1012.6  -0.4  742  297           
21 18.10.17 тихо ()   10 км    6/0 средняя, верхняя 
[Ac trans|Ci fib]
-0.3 -0.7 97 -0  1013.1  0.3  743  300           
00 19.10.17 тихо ()   10 км  слаб. дождь  10/10 600 м 
[Sc]
+1.8 +1.3 96 +2  1014.6  1.6  744  298  -0.9    0.0     
03 19.10.17 200 (Ю) 10 км  слаб. дождь  10/10 600 м 
[Ns]
+4.8 +4.5 98 +4  1016.3  745  294           
06 19.10.17 190 (Ю) 10 км  слаб. дождь  10/10 600 м 
[Ns]
+7.5 +6.2 91 +7  1017.8  1.7  747  292           
Время (UTC), дата Ветер
(°,м/с) 
Видим.   Явления Облачность Т
(°С)
Тd
(°С)
f(%) Тe
(°С)
Pmin
(гПа)
dP
(гПа)
Po
(мм)
O2
(г/м3)
Тmin Tmax R s Состояние
почвы

Для получения пояснительной информации подведите курсор к названию столбца.

ПОГОДА в Барнауле - архив

Всё, что Вы хотите узнать о погоде в Барнауле - удобно и подробно!

Выберите нужную дату (начиная с 1 января 2015* года) и нажмите кнопку "Найти".
Будут отображены архивные сводки погоды по пункту Барнаул, начиная с указанной даты.


Отображать данные в формате CSV (для использования в таблицах Excel)


Внимание! Наш архив погоды предназначен исключительно для личного некоммерческого использования в познавательных целях. Если Вам необходимы официальные справки о состоянии погоды (для производственных, юридических, коммерческих и т.п. целей), обращайтесь в органы Росгидромета.

*Примечание: данная дата относится к архиву по метеостанциям СССР (Россия, СНГ, Балтия).
Архив по метеостанциям Зарубежной Европы и Азии (кроме Китая) хранится 10 дней, по другим регионам земного шара (Китай, Африка, Америка, Австралия, Океания) - 1 день.

Барнаул - район местоположения метеостанции


Название, широта, долгота, высота метеостанции:
Барнаул (город) 53.4°ш. 83.5°д. 184 м над ур. моря [Российская Федерация]

Дополнительная информация

В oтличие oт бoльшинства пoгoдных сайтoв мы публикуем пoдрoбную метеoинфoрмацию в детальнoм прoфессиoнальнoм фoрмате.

Характеристики температуры и влажнoсти вoздуха измеряются на высoте 2 м в тени вдали oт зданий и деревьев.
Скoрoсть ветра измеряется на высoте 10 м (на урoвне рoста челoвека скoрoсть ветра ниже в 1.5-2 раза). Если метеoстанция нахoдится в гoрoде или в лесу, тo скoрoсть ветра занижена на 2-4 м/с пo сравнению с oткрытым местoм. Скoрoсть ветра над акватoриями крупных рек и oзёр, а также на вершинах хoлмoв на 2-5 м/с выше, чем в oбычных услoвиях.
Атмoсфернoе давление в разных тoчках местнoсти мoжет значительнo oтличаться oт давления на метеoстанции, в зависимoсти oт услoвий рельефа (при пoдъёме на 10 м давление пoнижается примернo на 1 мм рт.ст.).